Location: *
(43.9900°N, 3.4811°E)
Time: 08:38:15
(UTC+00:00)

USA 229 DEB - Pass Details

Date: 25 August 2019
Orbit: 1003 x 1210 km, 63.4° (Epoch: 31 August)

Event Time Altitude Azimuth Distance (km) Brightness Sun altitude
Rises 20:57:47 0° 322° (NW) 3,960 8.1 -23.1°
Reaches altitude 10° 21:00:25 10° 322° (NW) 3,027 7.2 -23.5°
Maximum altitude 21:07:42 83° 236° (SW) 1,185 3.8 -24.4°
Enters shadow 21:10:12 47° 153° (SSE) 1,533 4.0 -24.7°
